EN

Hourly Weather Barroso

Today, 17 January, Sunday

Time Temperature Precipitation Wind Pressure Humidity
00:00 +18°C° 0 mm 3 mps 679 mmHg 97%
01:00 +18°C° 0 mm 2 mps 679 mmHg 97%
02:00 +18°C° 0 mm 2 mps 679 mmHg 98%
03:00 +18°C° 0 mm 2 mps 679 mmHg 98%
04:00 +18°C° 0 mm 2 mps 679 mmHg 98%
05:00 +18°C° 0 mm 2 mps 679 mmHg 98%
06:00 +19°C° 0 mm 1 mps 679 mmHg 98%
07:00 +20°C° 0 mm 1 mps 680 mmHg 94%
08:00 +21°C° 0 mm 1 mps 680 mmHg 90%
09:00 +22°C° 0 mm 1 mps 681 mmHg 86%
10:00 +23°C° 0 mm 2 mps 681 mmHg 82%
11:00 +25°C° 0 mm 2 mps 681 mmHg 79%
12:00 +26°C° 0 mm 2 mps 680 mmHg 75%
13:00 +26°C° 0.6 mm 3 mps 680 mmHg 77%
14:00 +26°C° 0.6 mm 3 mps 680 mmHg 79%
15:00 +26°C° 0.6 mm 3 mps 679 mmHg 80%
16:00 +25°C° 0.4 mm 3 mps 679 mmHg 84%
17:00 +24°C° 0.4 mm 3 mps 679 mmHg 87%
18:00 +22°C° 0.4 mm 3 mps 678 mmHg 90%
19:00 +21°C° 0 mm 3 mps 679 mmHg 92%
20:00 +20°C° 0 mm 3 mps 679 mmHg 93%
21:00 +19°C° 0 mm 2 mps 679 mmHg 95%
22:00 +18°C° 0 mm 2 mps 679 mmHg 95%
23:00 +18°C° 0 mm 2 mps 679 mmHg 96%

Tomorrow, 18 January, Monday

Time Temperature Precipitation Wind Pressure Humidity
00:00 +18°C° 0 mm 2 mps 680 mmHg 96%
01:00 +17°C° 0 mm 2 mps 679 mmHg 96%
02:00 +17°C° 0 mm 2 mps 679 mmHg 95%
03:00 +18°C° 0 mm 1 mps 679 mmHg 95%
04:00 +18°C° 0 mm 1 mps 679 mmHg 96%
05:00 +16°C° 0 mm 1 mps 679 mmHg 96%
06:00 +16°C° 0 mm 1 mps 679 mmHg 96%
07:00 +18°C° 0 mm 2 mps 680 mmHg 90%
08:00 +20°C° 0 mm 2 mps 680 mmHg 83%
09:00 +24°C° 0 mm 2 mps 681 mmHg 77%
10:00 +25°C° 0 mm 2 mps 681 mmHg 71%
11:00 +26°C° 0 mm 2 mps 681 mmHg 65%
12:00 +27°C° 0 mm 2 mps 681 mmHg 59%
13:00 +28°C° 0 mm 2 mps 681 mmHg 57%
14:00 +28°C° 0 mm 2 mps 680 mmHg 55%
15:00 +28°C° 0 mm 1 mps 680 mmHg 53%
16:00 +27°C° 0 mm 1 mps 679 mmHg 61%
17:00 +26°C° 0 mm 1 mps 679 mmHg 69%
18:00 +25°C° 0 mm 2 mps 679 mmHg 78%
19:00 +23°C° 0 mm 2 mps 679 mmHg 83%
20:00 +21°C° 0 mm 2 mps 679 mmHg 89%
21:00 +19°C° 0 mm 2 mps 679 mmHg 95%
22:00 +19°C° 0 mm 2 mps 679 mmHg 93%
23:00 +18°C° 0 mm 2 mps 679 mmHg 91%

Day after tomorrow, 19 January, Tuesday

Time Temperature Precipitation Wind Pressure Humidity
00:00 +17°C° 0 mm 2 mps 679 mmHg 89%
01:00 +18°C° 0 mm 1 mps 679 mmHg 89%
02:00 +18°C° 0 mm 1 mps 679 mmHg 90%
03:00 +15°C° 0 mm 0 mps 679 mmHg 91%
04:00 +16°C° 0 mm 0 mps 679 mmHg 91%
05:00 +16°C° 0 mm 0 mps 679 mmHg 92%
06:00 +16°C° 0 mm 0 mps 679 mmHg 92%
07:00 +20°C° 0 mm 1 mps 680 mmHg 85%
08:00 +22°C° 0 mm 1 mps 681 mmHg 79%
09:00 +25°C° 0 mm 1 mps 682 mmHg 72%
10:00 +26°C° 0 mm 1 mps 682 mmHg 67%
11:00 +27°C° 0 mm 1 mps 682 mmHg 63%
12:00 +28°C° 0 mm 2 mps 682 mmHg 58%
13:00 +28°C° 0.1 mm 1 mps 681 mmHg 59%
14:00 +28°C° 0.1 mm 1 mps 681 mmHg 59%
15:00 +28°C° 0.1 mm 1 mps 680 mmHg 60%
16:00 +27°C° 0.2 mm 1 mps 680 mmHg 68%
17:00 +26°C° 0.2 mm 2 mps 680 mmHg 76%
18:00 +25°C° 0.2 mm 2 mps 680 mmHg 84%
19:00 +23°C° 0.1 mm 2 mps 680 mmHg 88%
20:00 +21°C° 0.1 mm 2 mps 680 mmHg 92%
21:00 +20°C° 0.1 mm 2 mps 680 mmHg 96%
22:00 +19°C° 0 mm 2 mps 680 mmHg 96%
23:00 +19°C° 0 mm 2 mps 680 mmHg 96%

20 January, Wednesday

Time Temperature Precipitation Wind Pressure Humidity
00:00 +19°C° 0 mm 2 mps 680 mmHg 96%
01:00 +19°C° 0 mm 2 mps 680 mmHg 95%
02:00 +20°C° 0 mm 1 mps 680 mmHg 93%
03:00 +20°C° 0 mm 1 mps 680 mmHg 91%
04:00 +20°C° 0 mm 1 mps 680 mmHg 92%
05:00 +20°C° 0 mm 1 mps 680 mmHg 93%
06:00 +19°C° 0 mm 1 mps 681 mmHg 93%
07:00 +21°C° 0 mm 1 mps 681 mmHg 89%
08:00 +22°C° 0 mm 1 mps 682 mmHg 84%
09:00 +23°C° 0 mm 1 mps 682 mmHg 79%
10:00 +25°C° 0 mm 2 mps 682 mmHg 73%
11:00 +26°C° 0 mm 2 mps 682 mmHg 67%
12:00 +27°C° 0 mm 2 mps 682 mmHg 61%
13:00 +27°C° 0.2 mm 2 mps 681 mmHg 62%
14:00 +27°C° 0.2 mm 2 mps 681 mmHg 63%
15:00 +27°C° 0.2 mm 2 mps 680 mmHg 65%
16:00 +26°C° 0.1 mm 2 mps 680 mmHg 71%
17:00 +25°C° 0.1 mm 2 mps 680 mmHg 78%
18:00 +24°C° 0.1 mm 2 mps 679 mmHg 84%
19:00 +23°C° 0 mm 2 mps 680 mmHg 88%
20:00 +21°C° 0 mm 2 mps 680 mmHg 92%
21:00 +19°C° 0 mm 2 mps 680 mmHg 96%
22:00 +19°C° 0 mm 2 mps 680 mmHg 96%
23:00 +19°C° 0 mm 2 mps 680 mmHg 96%

21 January, Thursday

Time Temperature Precipitation Wind Pressure Humidity
00:00 +18°C° 0 mm 2 mps 680 mmHg 96%
01:00 +18°C° 0 mm 2 mps 680 mmHg 96%
02:00 +19°C° 0 mm 1 mps 680 mmHg 97%
03:00 +19°C° 0 mm 1 mps 680 mmHg 97%
04:00 +19°C° 0 mm 1 mps 680 mmHg 97%
05:00 +19°C° 0 mm 1 mps 681 mmHg 98%
06:00 +19°C° 0 mm 1 mps 681 mmHg 98%
07:00 +19°C° 0 mm 2 mps 682 mmHg 91%
08:00 +21°C° 0 mm 2 mps 682 mmHg 85%
09:00 +24°C° 0 mm 2 mps 683 mmHg 78%
10:00 +25°C° 0 mm 2 mps 683 mmHg 73%
11:00 +26°C° 0 mm 2 mps 683 mmHg 69%
12:00 +27°C° 0 mm 3 mps 683 mmHg 64%
13:00 +27°C° 0 mm 3 mps 682 mmHg 63%
14:00 +27°C° 0 mm 3 mps 682 mmHg 63%
15:00 +27°C° 0 mm 3 mps 681 mmHg 62%
16:00 +26°C° 0 mm 3 mps 681 mmHg 69%
17:00 +25°C° 0 mm 3 mps 681 mmHg 76%
18:00 +24°C° 0 mm 3 mps 681 mmHg 83%
19:00 +22°C° 0 mm 3 mps 681 mmHg 87%
20:00 +20°C° 0 mm 2 mps 681 mmHg 91%
21:00 +19°C° 0 mm 2 mps 681 mmHg 95%
22:00 +19°C° 0 mm 2 mps 681 mmHg 96%
23:00 +18°C° 0 mm 2 mps 681 mmHg 96%

22 January, Friday

Time Temperature Precipitation Wind Pressure Humidity
00:00 +18°C° 0 mm 2 mps 682 mmHg 97%
01:00 +18°C° 0 mm 2 mps 681 mmHg 97%
02:00 +18°C° 0 mm 2 mps 681 mmHg 97%
03:00 +19°C° 0 mm 1 mps 681 mmHg 97%
04:00 +19°C° 0 mm 1 mps 682 mmHg 97%
05:00 +19°C° 0 mm 1 mps 682 mmHg 98%
06:00 +19°C° 0 mm 1 mps 682 mmHg 98%
07:00 +19°C° 0 mm 2 mps 683 mmHg 91%
08:00 +21°C° 0 mm 2 mps 683 mmHg 85%
09:00 +23°C° 0 mm 2 mps 684 mmHg 79%
10:00 +24°C° 0 mm 2 mps 684 mmHg 74%
11:00 +25°C° 0 mm 3 mps 684 mmHg 69%
12:00 +26°C° 0 mm 3 mps 684 mmHg 64%
13:00 +26°C° 0 mm 3 mps 683 mmHg 64%
14:00 +27°C° 0 mm 3 mps 683 mmHg 65%
15:00 +27°C° 0 mm 3 mps 682 mmHg 65%
16:00 +26°C° 0 mm 3 mps 682 mmHg 71%
17:00 +25°C° 0 mm 3 mps 682 mmHg 77%
18:00 +24°C° 0 mm 3 mps 681 mmHg 83%
19:00 +21°C° 0 mm 3 mps 682 mmHg 88%
20:00 +20°C° 0 mm 3 mps 682 mmHg 92%
21:00 +19°C° 0 mm 3 mps 682 mmHg 96%
22:00 +19°C° 0 mm 3 mps 682 mmHg 97%
23:00 +18°C° 0 mm 3 mps 682 mmHg 97%
Show more

We Need Your Consent

Meteoprog and our Service Providers may store and access personal data such as cookies, device identifiers or other similar technologies on your device and process such data to personalise content and ads, as well as provide social media features and to analyse the traffic.

  • Store and/or access information on your device

    Cookies, device identifiers or other information can be stored or accessed on your device for the purposes indicated above.

  • Personalised ads and content, ad and content measurement, audience insights, and products development

    Ads and content can be personalised based on a profile. More data can be added to better personalise ads and content. Ad and content performance can be measured. Insights about the audience who saw the ads and content can be derived. Such data can be used to develop or improve user’s experience, systems and software.

By clicking ‘I Agree’ you will allow the use of indicated cookies, device identifiers, web beacons or other similar technologies. Your settings can be changed in the browser on your device.

For certain purposes, legitimate interests may be relied on, rather than consent. You can read more about this in our Privacy and Cookie Policy.